Location: Rounton
(54.4000°N, 1.3500°W)
Time: 17:54:11
(UTC+01:00)

N. Korean satellite - Pass Details

Date: 26 August 2022
Orbit: 427 x 468 km, 97.3° (Epoch: 26 September)

Event Time Altitude Azimuth Distance (km) Brightness Sun altitude
Rises 05:18:26 0° 28° (NNE) 2,534 11.3 -6.6°
Reaches altitude 10° 05:21:19 10° 54° (NE) 1,643 11.0 -6.2°
Maximum altitude 05:23:18 14° 88° (E) 1,389 10.0 -6.0°
Drops below altitude 10° 05:25:16 10° 123° (ESE) 1,625 9.7 -5.7°
Sets 05:28:04 0° 149° (SSE) 2,484 10.2 -5.3°
